GW2039 Weather Reports


Display with metric or nautical units.
time (UTC)temp
F
wind
direction
speed
MPH
gust
MPH
rain 1hr
in
rain 24hr
in
rain mn
in
humidity
%
barometer
mb
20260903143302 89 212 1.0 2.0 0.00 0.00 0.00 78 1004.1
20260903143201 89 212 1.0 2.0 0.00 0.00 0.00 78 1004.2
20260903143058 89 212 1.0 2.0 0.00 0.00 0.00 78 1004.2
20260903143006 89 172 1.0 2.0 0.00 0.00 0.00 78 1004.1
20260903142901 89 172 1.0 3.0 0.00 0.00 0.00 78 1004.1
20260903142800 89 172 0.0 4.0 0.00 0.00 0.00 78 1004.1
20260903142701 89 172 0.0 4.0 0.00 0.00 0.00 78 1004.1
20260903142604 89 172 0.0 4.0 0.00 0.00 0.00 78 1004.1
20260903142501 89 172 1.0 4.0 0.00 0.00 0.00 78 1004.0
20260903142401 89 172 1.0 4.0 0.00 0.00 0.00 78 1004.1
20260903142306 89 172 1.0 4.0 0.00 0.00 0.00 78 1004.1
20260903142159 89 172 1.0 4.0 0.00 0.00 0.00 78 1004.1
20260903142059 89 172 2.0 4.0 0.00 0.00 0.00 78 1004.1
20260903142006 89 172 3.0 5.0 0.00 0.00 0.00 78 1003.9
20260903141900 89 171 2.0 4.0 0.00 0.00 0.00 78 1004.0
20260903141803 89 150 2.0 3.0 0.00 0.00 0.00 78 1004.0
20260903141700 89 164 2.0 3.0 0.00 0.00 0.00 78 1003.9
20260903141505 89 180 1.0 3.0 0.00 0.00 0.00 78 1003.9
20260903141401 89 167 1.0 5.0 0.00 0.00 0.00 78 1003.9
20260903141302 89 188 1.0 5.0 0.00 0.00 0.00 78 1003.9
20260903141201 89 188 2.0 5.0 0.00 0.00 0.00 78 1003.9
20260903141107 89 188 1.0 5.0 0.00 0.00 0.00 78 1003.9
20260903141018 89 195 1.0 5.0 0.00 0.00 0.00 78 1003.9
20260903140800 89 195 2.0 5.0 0.00 0.00 0.00 78 1003.9
20260903140601 89 209 2.0 5.0 0.00 0.00 0.00 78 1003.9
20260903140525 89 185 1.0 4.0 0.00 0.00 0.00 78 1003.8
20260903140401 89 195 2.0 4.0 0.00 0.00 0.00 78 1003.9
20260903140258 89 195 2.0 4.0 0.00 0.00 0.00 78 1003.8
20260903140203 89 219 3.0 4.0 0.00 0.00 0.00 77 1003.8
20260903140107 89 221 3.0 4.0 0.00 0.00 0.00 77 1003.8
20260903135805 89 200 1.0 4.0 0.00 0.00 0.00 77 1003.8
20260903135700 89 187 1.0 4.0 0.00 0.00 0.00 77 1003.6
20260903135559 89 187 2.0 4.0 0.00 0.00 0.00 77 1003.7
20260903135505 89 187 2.0 4.0 0.00 0.00 0.00 77 1003.7
20260903135301 89 207 2.0 4.0 0.00 0.00 0.00 77 1003.5
20260903135202 89 149 2.0 4.0 0.00 0.00 0.00 77 1003.5
20260903135102 89 179 2.0 4.0 0.00 0.00 0.00 77 1003.5
20260903135007 90 183 2.0 4.0 0.00 0.00 0.00 77 1003.5
20260903134900 90 178 2.0 4.0 0.00 0.00 0.00 77 1003.6
20260903134801 90 191 2.0 4.0 0.00 0.00 0.00 77 1003.5
20260903134630 90 197 3.0 5.0 0.00 0.00 0.00 77 1003.5
20260903134531 90 208 3.0 5.0 0.00 0.00 0.00 77 1003.5
20260903134442 90 171 3.0 5.0 0.00 0.00 0.00 77 1003.5
20260903031403 82 57 1.0 6.0 0.00 0.00 0.00 84 1007.5
20260903031305 82 124 1.0 6.0 0.00 0.00 0.00 84 1007.4
20260903031202 82 87 3.0 6.0 0.00 0.00 0.00 84 1007.5
20260903031102 82 64 3.0 6.0 0.00 0.00 0.00 84 1007.4
20260903031005 82 74 3.0 7.0 0.00 0.00 0.00 84 1007.5
20260903030859 82 104 3.0 7.0 0.00 0.00 0.00 84 1007.4
20260903030803 82 51 3.0 7.0 0.00 0.00 0.00 84 1007.4
20260903030701 82 110 4.0 7.0 0.00 0.00 0.00 84 1007.3
20260903030502 81 81 4.0 7.0 0.00 0.00 0.00 84 1007.3
20260903030303 81 76 3.0 7.0 0.00 0.00 0.00 85 1007.4
20260903030011 81 53 3.0 7.0 0.00 0.00 0.00 85 1007.4
20260903025659 81 108 1.0 7.0 0.00 0.00 0.00 85 1007.4
20260903025559 81 136 2.0 7.0 0.00 0.00 0.00 85 1007.4
20260903025507 81 159 2.0 7.0 0.00 0.00 0.00 85 1007.4
20260903025306 81 113 3.0 7.0 0.00 0.00 0.00 85 1007.5
20260903025159 81 96 3.0 7.0 0.00 0.00 0.00 85 1007.5
20260903025008 80 132 3.0 7.0 0.00 0.00 0.00 85 1007.4
20260903024904 80 138 3.0 7.0 0.00 0.00 0.00 85 1007.4
20260903024803 80 124 4.0 7.0 0.00 0.00 0.00 85 1007.4
20260903024702 80 121 4.0 7.0 0.00 0.00 0.00 85 1007.4
20260903024607 80 102 4.0 7.0 0.00 0.00 0.00 85 1007.3
20260903024403 80 123 3.0 5.0 0.00 0.00 0.00 86 1007.1
20260903011106 79 67 5.0 10.0 0.00 0.00 0.00 83 1006.9
20260903011010 79 48 5.0 10.0 0.00 0.00 0.00 83 1006.8
20260903010804 79 96 5.0 8.0 0.00 0.00 0.00 83 1006.8
20260903010704 79 65 5.0 8.0 0.00 0.00 0.00 83 1006.7
20260903010602 79 43 4.0 7.0 0.00 0.00 0.00 83 1006.7
20260903010403 79 107 4.0 8.0 0.00 0.00 0.00 82 1006.7
20260903010305 79 95 3.0 8.0 0.00 0.00 0.00 82 1006.7
20260903005912 79 88 4.0 8.0 0.00 0.00 0.00 82 1006.6
20260903005758 79 101 4.0 8.0 0.00 0.00 0.00 82 1006.7
20260903005606 79 333 2.0 7.0 0.00 0.00 0.00 82 1006.6
20260903005402 79 72 3.0 7.0 0.00 0.00 0.00 82 1006.6
20260903005107 80 113 3.0 7.0 0.00 0.00 0.00 82 1006.3
20260903005009 80 49 3.0 7.0 0.00 0.00 0.00 82 1006.3
20260903004802 80 106 3.0 7.0 0.00 0.00 0.00 82 1006.3
20260903004603 80 103 4.0 6.0 0.00 0.00 0.00 82 1006.2
20260903004505 80 98 3.0 7.0 0.00 0.00 0.00 82 1006.2
20260903004359 80 134 3.0 7.0 0.00 0.00 0.00 81 1006.1
20260903004303 80 111 3.0 7.0 0.00 0.00 0.00 82 1006.2
20260903004202 80 120 3.0 7.0 0.00 0.00 0.00 81 1006.2
20260903004004 80 44 2.0 9.0 0.00 0.00 0.00 81 1006.2
20260903003901 80 71 2.0 9.0 0.00 0.00 0.00 81 1006.2
20260903003658 80 123 3.0 10.0 0.00 0.00 0.00 81 1006.4
20260903003600 80 88 4.0 10.0 0.00 0.00 0.00 81 1006.3
20260903003508 80 137 5.0 10.0 0.00 0.00 0.00 81 1006.3
20260903003404 80 80 4.0 10.0 0.00 0.00 0.00 81 1006.3
20260903003304 80 105 4.0 10.0 0.00 0.00 0.00 81 1006.2
20260903003201 80 75 3.0 10.0 0.00 0.00 0.00 81 1006.1
20260903003102 80 112 4.0 10.0 0.00 0.00 0.00 81 1006.0
20260903003007 80 143 6.0 10.0 0.00 0.00 0.00 81 1006.1
20260903002902 80 74 5.0 10.0 0.00 0.00 0.00 81 1006.0
20260903002800 80 132 5.0 10.0 0.00 0.00 0.00 82 1006.0
20260903002710 80 101 5.0 10.0 0.00 0.00 0.00 81 1006.0
20260902235104 83 90 5.0 9.0 0.00 0.00 0.00 90 1005.9
20260902235002 83 116 3.0 7.0 0.00 0.00 0.00 89 1005.9
20260902234901 83 107 4.0 7.0 0.00 0.00 0.00 89 1006.0
20260902234803 83 123 5.0 7.0 0.00 0.00 0.00 89 1005.9
20260902234700 83 84 4.0 8.0 0.00 0.00 0.00 89 1006.0
20260902234604 83 103 4.0 8.0 0.00 0.00 0.00 89 1006.0
20260902234300 83 90 3.0 7.0 0.00 0.00 0.00 89 1005.9
20260902234201 83 101 3.0 7.0 0.00 0.00 0.00 89 1005.8
20260902234059 83 100 2.0 5.0 0.00 0.00 0.00 89 1005.8
20260902234005 83 72 2.0 5.0 0.00 0.00 0.00 89 1005.7
20260902233900 83 80 2.0 5.0 0.00 0.00 0.00 89 1005.7
20260902233800 83 71 1.0 5.0 0.00 0.00 0.00 89 1005.7
20260902233505 83 152 2.0 5.0 0.00 0.00 0.00 89 1005.7
20260902233400 83 66 3.0 5.0 0.00 0.00 0.00 89 1005.8
20260902233259 83 62 2.0 8.0 0.00 0.00 0.00 89 1005.8
20260902233158 83 67 1.0 8.0 0.00 0.00 0.00 89 1005.7
20260902233002 83 86 2.0 8.0 0.00 0.00 0.00 89 1005.8
20260902232901 83 110 2.0 8.0 0.00 0.00 0.00 89 1005.9
20260902232800 83 63 1.0 8.0 0.00 0.00 0.00 89 1005.9
20260902232701 83 80 2.0 8.0 0.00 0.00 0.00 89 1005.9
20260902232500 83 88 3.0 8.0 0.00 0.00 0.00 89 1005.8
20260902232400 83 74 2.0 5.0 0.00 0.00 0.00 89 1005.8
20260902232201 83 84 3.0 5.0 0.00 0.00 0.00 89 1005.7
20260902232101 83 56 2.0 5.0 0.00 0.00 0.00 89 1005.8
20260902232006 83 80 2.0 5.0 0.00 0.00 0.00 89 1005.8
20260902231902 83 85 2.0 5.0 0.00 0.00 0.00 89 1005.8
20260902231757 83 79 2.0 5.0 0.00 0.00 0.00 89 1005.8
20260902231704 83 80 2.0 5.0 0.00 0.00 0.00 89 1005.8
20260902231601 83 88 3.0 5.0 0.00 0.00 0.00 89 1005.8
20260902231504 83 40 3.0 5.0 0.00 0.00 0.00 89 1005.8
20260902231401 83 51 2.0 5.0 0.00 0.00 0.00 89 1005.7
20260902231159 83 70 3.0 5.0 0.00 0.00 0.00 89 1005.8
20260902231103 83 58 3.0 5.0 0.00 0.00 0.00 89 1005.8
20260902231005 83 71 3.0 5.0 0.00 0.00 0.00 89 1005.7
20260902230901 83 46 2.0 5.0 0.00 0.00 0.00 89 1005.6
20260902230805 83 82 3.0 5.0 0.00 0.00 0.00 89 1005.7
20260902230701 83 63 3.0 5.0 0.00 0.00 0.00 89 1005.6
20260902230600 83 74 2.0 5.0 0.00 0.00 0.00 89 1005.6
20260902230401 83 57 3.0 5.0 0.00 0.00 0.00 89 1005.7
20260902230300 83 51 3.0 5.0 0.00 0.00 0.00 88 1005.6
20260902230203 83 59 3.0 5.0 0.00 0.00 0.00 88 1005.6
20260902230059 83 67 3.0 5.0 0.00 0.00 0.00 88 1005.7
20260902230001 83 67 3.0 5.0 0.00 0.00 0.00 88 1005.6
20260902225940 83 67 3.0 5.0 0.00 0.00 0.00 88 1005.6
20260902193901 85 103 0.0 1.0 0.00 0.00 0.00 81 1005.9
20260902193802 85 103 0.0 1.0 0.00 0.00 0.00 81 1005.9
20260902193703 85 103 0.0 1.0 0.00 0.00 0.00 81 1005.9
20260902193603 85 103 0.0 1.0 0.00 0.00 0.00 81 1005.9
20260902193359 85 103 0.0 1.0 0.00 0.00 0.00 81 1005.9
20260902193301 85 103 0.0 2.0 0.00 0.00 0.00 81 1005.9
20260902193202 85 103 0.0 2.0 0.00 0.00 0.00 81 1005.9
20260902193100 85 103 0.0 2.0 0.00 0.00 0.00 81 1005.9
20260902192703 85 103 0.0 2.0 0.00 0.00 0.00 80 1005.9
20260902192603 85 103 1.0 2.0 0.00 0.00 0.00 80 1005.9
20260902192503 85 103 1.0 2.0 0.00 0.00 0.00 80 1005.9
20260902192359 85 103 1.0 2.0 0.00 0.00 0.00 80 1006.0
20260902192300 85 103 1.0 2.0 0.00 0.00 0.00 80 1005.9
20260902192205 85 103 1.0 2.0 0.00 0.00 0.00 80 1005.9
20260902192102 85 103 1.0 2.0 0.00 0.00 0.00 80 1006.0
20260902192004 86 109 1.0 3.0 0.00 0.00 0.00 80 1006.0
20260902191902 85 102 0.0 3.0 0.00 0.00 0.00 80 1006.0
20260902191804 86 85 0.0 3.0 0.00 0.00 0.00 80 1006.0
20260902191703 86 85 1.0 3.0 0.00 0.00 0.00 80 1006.0
20260902191603 85 111 1.0 3.0 0.00 0.00 0.00 80 1006.1
20260902191404 86 126 1.0 3.0 0.00 0.00 0.00 80 1005.9
20260902191305 86 99 1.0 3.0 0.00 0.00 0.00 80 1006.0
20260902191204 86 94 2.0 3.0 0.00 0.00 0.00 80 1006.0
20260902191103 86 41 2.0 3.0 0.00 0.00 0.00 80 1006.0
20260902191009 86 86 1.0 3.0 0.00 0.00 0.00 80 1006.0
20260902190903 86 94 1.0 2.0 0.00 0.00 0.00 80 1006.0
20260902190704 86 82 0.0 2.0 0.00 0.00 0.00 80 1006.1
20260902190559 86 82 0.0 2.0 0.00 0.00 0.00 80 1006.0
20260902190305 86 86 1.0 2.0 0.00 0.00 0.00 80 1006.0
20260902190005 86 132 0.0 2.0 0.00 0.00 0.00 80 1006.1
20260902185801 86 132 0.0 2.0 0.00 0.00 0.00 80 1006.1
20260902185702 86 132 0.0 2.0 0.00 0.00 0.00 80 1006.1
20260902185604 86 139 0.0 2.0 0.00 0.00 0.00 80 1006.1
20260902185501 86 139 0.0 3.0 0.00 0.00 0.00 79 1006.0
20260902185359 86 139 1.0 3.0 0.00 0.00 0.00 79 1006.1
20260902185300 86 124 1.0 3.0 0.00 0.00 0.00 80 1006.1
20260902185203 86 129 1.0 3.0 0.00 0.00 0.00 79 1006.1
20260902184901 86 75 0.0 3.0 0.00 0.00 0.00 80 1006.1
20260902184758 86 75 1.0 3.0 0.00 0.00 0.00 79 1006.1
20260902184602 86 124 2.0 3.0 0.00 0.00 0.00 79 1006.1
20260902184508 86 117 2.0 3.0 0.00 0.00 0.00 80 1006.1
20260902184403 86 136 1.0 3.0 0.00 0.00 0.00 80 1006.1
20260902184303 85 144 1.0 3.0 0.00 0.00 0.00 80 1006.1
20260902184200 86 144 2.0 3.0 0.00 0.00 0.00 80 1006.2
20260902184101 86 144 1.0 3.0 0.00 0.00 0.00 80 1006.0
20260902184007 86 144 1.0 3.0 0.00 0.00 0.00 80 1006.1
20260902183802 86 142 1.0 3.0 0.00 0.00 0.00 80 1006.1
20260902183559 86 130 1.0 3.0 0.00 0.00 0.00 80 1006.1
20260902183501 86 137 2.0 3.0 0.00 0.00 0.00 80 1006.2
20260902183401 86 136 2.0 3.0 0.00 0.00 0.00 80 1006.1
20260902183203 86 115 1.0 3.0 0.00 0.00 0.00 80 1006.1
20260902183100 86 155 1.0 3.0 0.00 0.00 0.00 80 1006.1
20260902183005 86 144 1.0 3.0 0.00 0.00 0.00 80 1006.1
20260902182902 86 128 0.0 3.0 0.00 0.00 0.00 80 1006.1
20260902182702 86 126 1.0 3.0 0.00 0.00 0.00 80 1006.1
20260902182602 86 115 2.0 3.0 0.00 0.00 0.00 80 1006.1
20260902182503 86 98 2.0 3.0 0.00 0.00 0.00 80 1006.1
20260902182359 86 111 2.0 3.0 0.00 0.00 0.00 80 1006.2
20260902182300 86 108 2.0 3.0 0.00 0.00 0.00 80 1006.2
20260902182059 86 103 1.0 4.0 0.00 0.00 0.00 80 1006.1
20260902182005 85 86 1.0 4.0 0.00 0.00 0.00 80 1006.1
20260902181901 85 118 1.0 4.0 0.00 0.00 0.00 80 1006.1
20260902181702 85 126 2.0 4.0 0.00 0.00 0.00 80 1006.1
20260902181602 85 113 2.0 4.0 0.00 0.00 0.00 80 1006.1
20260902181504 85 123 2.0 4.0 0.00 0.00 0.00 80 1006.1
20260902181359 85 114 2.0 4.0 0.00 0.00 0.00 80 1006.0
20260902181301 85 104 2.0 4.0 0.00 0.00 0.00 80 1006.1
20260902181202 85 127 1.0 3.0 0.00 0.00 0.00 80 1006.1
20260902181059 85 133 1.0 3.0 0.00 0.00 0.00 80 1006.0
20260902181002 85 148 1.0 3.0 0.00 0.00 0.00 81 1006.1
20260902180858 85 84 1.0 3.0 0.00 0.00 0.00 81 1006.1
20260902180802 85 139 1.0 3.0 0.00 0.00 0.00 81 1006.1
20260902180700 85 94 1.0 3.0 0.00 0.00 0.00 81 1006.0
20260902180601 85 136 1.0 3.0 0.00 0.00 0.00 81 1006.1
20260902180503 85 115 0.0 3.0 0.00 0.00 0.00 81 1006.1
20260902180400 85 115 0.0 3.0 0.00 0.00 0.00 81 1006.0
20260902180259 85 105 1.0 3.0 0.00 0.00 0.00 81 1006.1
20260902180202 85 100 2.0 3.0 0.00 0.00 0.00 81 1006.1
20260902180010 85 116 2.0 3.0 0.00 0.00 0.00 81 1006.0
20260902175901 85 124 2.0 3.0 0.00 0.00 0.00 81 1006.0
20260902175804 85 123 2.0 3.0 0.00 0.00 0.00 81 1006.1
20260902175703 85 111 2.0 3.0 0.00 0.00 0.00 81 1006.2
20260902175601 85 125 2.0 4.0 0.00 0.00 0.00 81 1006.1
20260902175506 85 108 1.0 4.0 0.00 0.00 0.00 81 1006.2
20260902175307 85 118 1.0 4.0 0.00 0.00 0.00 81 1006.1
20260902175201 85 51 2.0 4.0 0.00 0.00 0.00 81 1006.2
20260902175101 85 88 1.0 4.0 0.00 0.00 0.00 81 1006.1
20260902174759 85 84 2.0 4.0 0.00 0.00 0.00 80 1006.2
20260902174700 85 73 2.0 4.0 0.00 0.00 0.00 80 1006.2
20260902174558 85 96 2.0 4.0 0.00 0.00 0.00 80 1006.1
20260902174507 85 88 2.0 4.0 0.00 0.00 0.00 80 1006.1
20260902174302 85 103 1.0 4.0 0.00 0.00 0.00 80 1006.1
20260902174205 85 86 1.0 4.0 0.00 0.00 0.00 80 1006.1
20260902174102 85 80 1.0 4.0 0.00 0.00 0.00 80 1006.2
20260902174002 85 94 1.0 4.0 0.00 0.00 0.00 80 1006.1
20260902173858 85 58 2.0 4.0 0.00 0.00 0.00 80 1006.2
20260902173802 85 55 2.0 4.0 0.00 0.00 0.00 80 1006.1
20260902173701 85 90 1.0 4.0 0.00 0.00 0.00 81 1006.1
20260902173600 85 117 1.0 4.0 0.00 0.00 0.00 81 1006.2
20260902173500 85 79 2.0 4.0 0.00 0.00 0.00 81 1006.2
20260902173401 85 130 1.0 4.0 0.00 0.00 0.00 81 1006.2
20260902173304 85 126 2.0 4.0 0.00 0.00 0.00 81 1006.2
20260902173200 85 153 2.0 4.0 0.00 0.00 0.00 81 1006.0
20260902173102 85 109 2.0 4.0 0.00 0.00 0.00 81 1005.9
20260902173009 85 110 2.0 4.0 0.00 0.00 0.00 81 1005.9
20260902172901 85 111 2.0 4.0 0.00 0.00 0.00 81 1006.0
20260902172804 85 111 2.0 4.0 0.00 0.00 0.00 81 1005.9
20260902172701 85 111 2.0 4.0 0.00 0.00 0.00 81 1005.9
20260902172601 85 111 2.0 4.0 0.00 0.00 0.00 81 1005.9
20260902172555 85 111 2.0 4.0 0.00 0.00 0.00 81 1005.9
20260902172505 85 95 2.0 4.0 0.00 0.00 0.00 81 1005.9